| time (UTC) | temp F | wind direction | speed MPH | gust MPH | rain 1hr in | rain 24hr in | rain mn in | humidity % | barometer mb |
| 20260504231004 | 70 | 137 | 4.0 | 13.0 | 0.00 | 0.00 | 0.00 | 43 | 1010.1 |
| 20260504230504 | 70 | 144 | 6.0 | 13.0 | 0.00 | 0.00 | 0.00 | 42 | 1010.2 |
| 20260504230010 | 71 | 146 | 3.0 | 11.0 | 0.00 | 0.00 | 0.00 | 42 | 1010.3 |
| 20260504225508 | 71 | 150 | 3.0 | 14.0 | 0.00 | 0.00 | 0.00 | 41 | 1010.2 |
| 20260504225005 | 71 | 173 | 7.0 | 14.0 | 0.00 | 0.00 | 0.00 | 41 | 1010.1 |
| 20260504224513 | 72 | 159 | 5.0 | 16.0 | 0.00 | 0.00 | 0.00 | 42 | 1010.2 |
| 20260504224005 | 72 | 240 | 4.0 | 18.0 | 0.00 | 0.00 | 0.00 | 42 | 1010.1 |
| 20260504223507 | 72 | 151 | 9.0 | 18.0 | 0.00 | 0.00 | 0.00 | 40 | 1010.1 |
| 20260504223019 | 72 | 161 | 7.0 | 16.0 | 0.00 | 0.00 | 0.00 | 40 | 1010.1 |
| 20260504222504 | 73 | 140 | 7.0 | 15.0 | 0.00 | 0.00 | 0.00 | 40 | 1010.1 |
| 20260504222009 | 73 | 138 | 7.0 | 15.0 | 0.00 | 0.00 | 0.00 | 40 | 1010.1 |
| 20260504221514 | 73 | 148 | 5.0 | 14.0 | 0.00 | 0.00 | 0.00 | 40 | 1010.1 |
| 20260504221006 | 74 | 165 | 3.0 | 15.0 | 0.00 | 0.00 | 0.00 | 40 | 1010.1 |
| 20260504220510 | 75 | 113 | 6.0 | 15.0 | 0.00 | 0.00 | 0.00 | 38 | 1010.0 |
| 20260504220024 | 76 | 139 | 6.0 | 13.0 | 0.00 | 0.00 | 0.00 | 37 | 1010.0 |
| 20260504215504 | 76 | 159 | 6.0 | 13.0 | 0.00 | 0.00 | 0.00 | 36 | 1010.0 |
| 20260504215005 | 77 | 98 | 5.0 | 13.0 | 0.00 | 0.00 | 0.00 | 36 | 1009.9 |
| 20260504214509 | 77 | 178 | 5.0 | 13.0 | 0.00 | 0.00 | 0.00 | 35 | 1009.9 |
| 20260504214004 | 78 | 182 | 4.0 | 13.0 | 0.00 | 0.00 | 0.00 | 35 | 1009.9 |
| 20260504213507 | 78 | 108 | 6.0 | 14.0 | 0.00 | 0.00 | 0.00 | 34 | 1010.0 |
| 20260504213021 | 78 | 159 | 5.0 | 14.0 | 0.00 | 0.00 | 0.00 | 30 | 1010.1 |
| 20260504212506 | 78 | 167 | 2.0 | 7.0 | 0.00 | 0.00 | 0.00 | 31 | 1010.1 |
| 20260504212009 | 78 | 153 | 3.0 | 14.0 | 0.00 | 0.00 | 0.00 | 32 | 1010.0 |
| 20260504211521 | 78 | 236 | 4.0 | 14.0 | 0.00 | 0.00 | 0.00 | 31 | 1010.1 |
| 20260504211007 | 78 | 241 | 3.0 | 10.0 | 0.00 | 0.00 | 0.00 | 31 | 1010.0 |
| 20260504210505 | 77 | 160 | 3.0 | 9.0 | 0.00 | 0.00 | 0.00 | 31 | 1010.0 |
| 20260504210015 | 77 | 231 | 5.0 | 11.0 | 0.00 | 0.00 | 0.00 | 31 | 1010.1 |
| 20260504205508 | 77 | 226 | 4.0 | 11.0 | 0.00 | 0.00 | 0.00 | 32 | 1010.1 |
| 20260504205009 | 77 | 215 | 5.0 | 11.0 | 0.00 | 0.00 | 0.00 | 32 | 1010.2 |
| 20260504204529 | 77 | 202 | 3.0 | 10.0 | 0.00 | 0.00 | 0.00 | 34 | 1010.2 |
| 20260504204005 | 77 | 211 | 3.0 | 13.0 | 0.00 | 0.00 | 0.00 | 33 | 1010.2 |
| 20260504203503 | 77 | 253 | 3.0 | 13.0 | 0.00 | 0.00 | 0.00 | 32 | 1010.2 |
| 20260504203013 | 77 | 177 | 4.0 | 11.0 | 0.00 | 0.00 | 0.00 | 32 | 1010.3 |
| 20260504202504 | 77 | 270 | 1.0 | 15.0 | 0.00 | 0.00 | 0.00 | 34 | 1010.3 |
| 20260504202005 | 77 | 176 | 6.0 | 15.0 | 0.00 | 0.00 | 0.00 | 32 | 1010.4 |
| 20260504201517 | 77 | 153 | 6.0 | 13.0 | 0.00 | 0.00 | 0.00 | 33 | 1010.3 |
| 20260504201008 | 77 | 349 | 6.0 | 13.0 | 0.00 | 0.00 | 0.00 | 33 | 1010.6 |
| 20260504200507 | 77 | 189 | 3.0 | 11.0 | 0.00 | 0.00 | 0.00 | 33 | 1010.5 |
| 20260504200024 | 77 | 167 | 3.0 | 12.0 | 0.00 | 0.00 | 0.00 | 33 | 1010.7 |
| 20260504195506 | 77 | 271 | 5.0 | 12.0 | 0.00 | 0.00 | 0.00 | 31 | 1010.8 |
| 20260504195007 | 77 | 157 | 4.0 | 12.0 | 0.00 | 0.00 | 0.00 | 32 | 1010.8 |
| 20260504194513 | 77 | 281 | 6.0 | 11.0 | 0.00 | 0.00 | 0.00 | 33 | 1010.9 |
| 20260504194005 | 77 | 263 | 3.0 | 16.0 | 0.00 | 0.00 | 0.00 | 34 | 1011.0 |
| 20260504193509 | 77 | 232 | 7.0 | 16.0 | 0.00 | 0.00 | 0.00 | 33 | 1010.9 |
| 20260504193022 | 76 | 301 | 2.0 | 11.0 | 0.00 | 0.00 | 0.00 | 34 | 1011.1 |
| 20260504192502 | 76 | 136 | 1.0 | 13.0 | 0.00 | 0.00 | 0.00 | 33 | 1011.2 |
| 20260504192007 | 76 | 281 | 4.0 | 15.0 | 0.00 | 0.00 | 0.00 | 34 | 1011.2 |
| 20260504191516 | 76 | 228 | 5.0 | 15.0 | 0.00 | 0.00 | 0.00 | 33 | 1011.3 |
| 20260504191007 | 76 | 180 | 5.0 | 15.0 | 0.00 | 0.00 | 0.00 | 33 | 1011.3 |
| 20260504190504 | 76 | 304 | 4.0 | 15.0 | 0.00 | 0.00 | 0.00 | 35 | 1011.4 |
| 20260504190018 | 76 | 205 | 3.0 | 15.0 | 0.00 | 0.00 | 0.00 | 35 | 1011.5 |
| 20260504185506 | 76 | 157 | 4.0 | 12.0 | 0.00 | 0.00 | 0.00 | 34 | 1011.6 |
| 20260504185006 | 76 | 232 | 4.0 | 11.0 | 0.00 | 0.00 | 0.00 | 34 | 1011.6 |
| 20260504184533 | 76 | 136 | 5.0 | 17.0 | 0.00 | 0.00 | 0.00 | 33 | 1011.8 |
| 20260504184011 | 76 | 302 | 6.0 | 17.0 | 0.00 | 0.00 | 0.00 | 32 | 1012.0 |
| 20260504183513 | 76 | 224 | 4.0 | 12.0 | 0.00 | 0.00 | 0.00 | 33 | 1012.1 |
| 20260504183025 | 77 | 169 | 2.0 | 12.0 | 0.00 | 0.00 | 0.00 | 34 | 1012.1 |
| 20260504182511 | 77 | 285 | 4.0 | 12.0 | 0.00 | 0.00 | 0.00 | 32 | 1012.2 |
| 20260504182008 | 77 | 209 | 2.0 | 9.0 | 0.00 | 0.00 | 0.00 | 34 | 1012.2 |
| 20260504181516 | 76 | 174 | 3.0 | 9.0 | 0.00 | 0.00 | 0.00 | 32 | 1012.2 |
| 20260504181006 | 76 | 270 | 4.0 | 13.0 | 0.00 | 0.00 | 0.00 | 33 | 1012.2 |
| 20260504180506 | 76 | 230 | 4.0 | 13.0 | 0.00 | 0.00 | 0.00 | 30 | 1012.4 |
| 20260504180018 | 75 | 186 | 2.0 | 11.0 | 0.00 | 0.00 | 0.00 | 32 | 1012.3 |
| 20260504175507 | 75 | 216 | 4.0 | 15.0 | 0.00 | 0.00 | 0.00 | 33 | 1012.5 |
| 20260504175006 | 75 | 254 | 8.0 | 15.0 | 0.00 | 0.00 | 0.00 | 31 | 1012.6 |
| 20260504174522 | 75 | 214 | 4.0 | 14.0 | 0.00 | 0.00 | 0.00 | 33 | 1012.5 |
| 20260504174009 | 75 | 201 | 5.0 | 14.0 | 0.00 | 0.00 | 0.00 | 33 | 1012.6 |
| 20260504173511 | 75 | 221 | 4.0 | 9.0 | 0.00 | 0.00 | 0.00 | 32 | 1012.8 |
| 20260504173022 | 74 | 191 | 3.0 | 10.0 | 0.00 | 0.00 | 0.00 | 32 | 1012.8 |
| 20260504172510 | 74 | 238 | 3.0 | 15.0 | 0.00 | 0.00 | 0.00 | 32 | 1012.8 |
| 20260504172011 | 74 | 194 | 6.0 | 15.0 | 0.00 | 0.00 | 0.00 | 34 | 1012.9 |
| 20260504171528 | 74 | 204 | 5.0 | 10.0 | 0.00 | 0.00 | 0.00 | 33 | 1013.0 |
| 20260504171016 | 74 | 195 | 3.0 | 10.0 | 0.00 | 0.00 | 0.00 | 34 | 1013.0 |
| 20260504170508 | 74 | 252 | 5.0 | 12.0 | 0.00 | 0.00 | 0.00 | 35 | 1013.1 |
| 20260504151004 | 71 | 151 | 4.0 | 10.0 | 0.00 | 0.00 | 0.00 | 35 | 1014.4 |
| 20260504150508 | 70 | 196 | 1.0 | 8.0 | 0.00 | 0.00 | 0.00 | 37 | 1014.4 |
| 20260504141004 | 67 | 221 | 3.0 | 7.0 | 0.00 | 0.00 | 0.00 | 42 | 1014.6 |
| 20260504140507 | 66 | 216 | 3.0 | 7.0 | 0.00 | 0.00 | 0.00 | 43 | 1014.6 |
| 20260504130507 | 61 | 211 | 5.0 | 13.0 | 0.00 | 0.00 | 0.00 | 49 | 1015.0 |
| 20260504110506 | 48 | 227 | 0.0 | 4.0 | 0.00 | 0.00 | 0.00 | 77 | 1015.4 |
| 20260504100506 | 48 | 175 | 1.0 | 4.0 | 0.00 | 0.00 | 0.00 | 77 | 1015.5 |
| 20260504081540 | 45 | 246 | 0.0 | 2.0 | 0.00 | 0.00 | 0.00 | 82 | 1015.9 |
| 20260504081011 | 45 | 246 | 0.0 | 1.0 | 0.00 | 0.00 | 0.00 | 82 | 1015.8 |
| 20260504080510 | 45 | 246 | 0.0 | 2.0 | 0.00 | 0.00 | 0.00 | 81 | 1015.9 |
| 20260504050504 | 40 | 190 | 0.0 | 0.0 | 0.00 | 0.00 | 0.00 | 84 | 1016.1 |
| 20260504050014 | 40 | 190 | 0.0 | 0.0 | 0.00 | 0.00 | 0.00 | 83 | 1016.1 |
| 20260504045502 | 40 | 190 | 0.0 | 0.0 | 0.00 | 0.00 | 0.00 | 83 | 1016.1 |
| 20260504045003 | 40 | 190 | 0.0 | 0.0 | 0.00 | 0.00 | 0.00 | 83 | 1016.1 |
| 20260504044508 | 40 | 190 | 0.0 | 0.0 | 0.00 | 0.00 | 0.00 | 83 | 1016.2 |
| 20260504044003 | 40 | 190 | 0.0 | 0.0 | 0.00 | 0.00 | 0.00 | 84 | 1016.2 |
| 20260504043504 | 40 | 190 | 0.0 | 0.0 | 0.00 | 0.00 | 0.00 | 84 | 1016.2 |
| 20260504043033 | 40 | 190 | 0.0 | 0.0 | 0.00 | 0.00 | 0.00 | 83 | 1016.2 |
| 20260504042505 | 40 | 190 | 0.0 | 0.0 | 0.00 | 0.00 | 0.00 | 83 | 1016.1 |
| 20260504042009 | 40 | 190 | 0.0 | 0.0 | 0.00 | 0.00 | 0.00 | 82 | 1016.2 |
| 20260504041506 | 41 | 190 | 0.0 | 0.0 | 0.00 | 0.00 | 0.00 | 82 | 1016.1 |
| 20260504041003 | 41 | 190 | 0.0 | 0.0 | 0.00 | 0.00 | 0.00 | 82 | 1016.1 |
| 20260504040508 | 41 | 190 | 0.0 | 0.0 | 0.00 | 0.00 | 0.00 | 82 | 1016.0 |
| 20260504040022 | 41 | 190 | 0.0 | 0.0 | 0.00 | 0.00 | 0.00 | 81 | 1016.1 |
| 20260504035505 | 41 | 190 | 0.0 | 0.0 | 0.00 | 0.00 | 0.00 | 81 | 1016.1 |
| 20260504035004 | 41 | 190 | 0.0 | 0.0 | 0.00 | 0.00 | 0.00 | 81 | 1016.1 |
| 20260504034506 | 41 | 190 | 0.0 | 0.0 | 0.00 | 0.00 | 0.00 | 81 | 1015.9 |
| 20260504034004 | 42 | 190 | 0.0 | 0.0 | 0.00 | 0.00 | 0.00 | 80 | 1015.9 |
| 20260504033501 | 42 | 190 | 0.0 | 2.0 | 0.00 | 0.00 | 0.00 | 79 | 1015.8 |
| 20260504033012 | 42 | 190 | 0.0 | 2.0 | 0.00 | 0.00 | 0.00 | 79 | 1015.8 |
| 20260504032504 | 42 | 197 | 0.0 | 1.0 | 0.00 | 0.00 | 0.00 | 78 | 1015.7 |
| 20260504032010 | 42 | 197 | 0.0 | 0.0 | 0.00 | 0.00 | 0.00 | 77 | 1015.6 |
| 20260504031516 | 42 | 197 | 0.0 | 0.0 | 0.00 | 0.00 | 0.00 | 76 | 1015.5 |
| 20260504031009 | 43 | 197 | 0.0 | 0.0 | 0.00 | 0.00 | 0.00 | 76 | 1015.4 |
| 20260504030505 | 43 | 197 | 0.0 | 0.0 | 0.00 | 0.00 | 0.00 | 75 | 1015.3 |
| 20260504030026 | 43 | 197 | 0.0 | 0.0 | 0.00 | 0.00 | 0.00 | 74 | 1015.5 |
| 20260504025503 | 43 | 197 | 0.0 | 0.0 | 0.00 | 0.00 | 0.00 | 73 | 1015.5 |
| 20260504025002 | 44 | 197 | 0.0 | 0.0 | 0.00 | 0.00 | 0.00 | 73 | 1015.4 |
| 20260504024514 | 44 | 197 | 0.0 | 0.0 | 0.00 | 0.00 | 0.00 | 73 | 1015.5 |
| 20260504024007 | 44 | 197 | 0.0 | 0.0 | 0.00 | 0.00 | 0.00 | 72 | 1015.4 |
| 20260504023503 | 44 | 197 | 0.0 | 0.0 | 0.00 | 0.00 | 0.00 | 71 | 1015.5 |
| 20260504023010 | 45 | 197 | 0.0 | 0.0 | 0.00 | 0.00 | 0.00 | 70 | 1015.5 |
| 20260504022502 | 45 | 197 | 0.0 | 0.0 | 0.00 | 0.00 | 0.00 | 68 | 1015.5 |
| 20260504022007 | 45 | 197 | 0.0 | 0.0 | 0.00 | 0.00 | 0.00 | 68 | 1015.6 |
| 20260504021508 | 45 | 197 | 0.0 | 0.0 | 0.00 | 0.00 | 0.00 | 68 | 1015.6 |
| 20260504021003 | 46 | 197 | 0.0 | 0.0 | 0.00 | 0.00 | 0.00 | 68 | 1015.5 |
| 20260504020502 | 46 | 197 | 0.0 | 0.0 | 0.00 | 0.00 | 0.00 | 67 | 1015.4 |
| 20260504020019 | 46 | 197 | 0.0 | 0.0 | 0.00 | 0.00 | 0.00 | 66 | 1015.4 |
| 20260504015509 | 47 | 197 | 0.0 | 0.0 | 0.00 | 0.00 | 0.00 | 64 | 1015.3 |
| 20260504015011 | 47 | 197 | 0.0 | 0.0 | 0.00 | 0.00 | 0.00 | 63 | 1015.5 |
| 20260504014533 | 47 | 197 | 0.0 | 0.0 | 0.00 | 0.00 | 0.00 | 62 | 1015.4 |
| 20260504014009 | 48 | 197 | 0.0 | 0.0 | 0.00 | 0.00 | 0.00 | 60 | 1015.5 |
| 20260504013507 | 48 | 197 | 0.0 | 0.0 | 0.00 | 0.00 | 0.00 | 59 | 1015.3 |
| 20260504013027 | 49 | 197 | 0.0 | 0.0 | 0.00 | 0.00 | 0.00 | 59 | 1015.3 |
| 20260504012504 | 49 | 197 | 0.0 | 0.0 | 0.00 | 0.00 | 0.00 | 58 | 1015.3 |
| 20260504012003 | 49 | 197 | 0.0 | 0.0 | 0.00 | 0.00 | 0.00 | 56 | 1015.2 |
| 20260504011510 | 50 | 197 | 0.0 | 0.0 | 0.00 | 0.00 | 0.00 | 55 | 1015.2 |
| 20260504011002 | 50 | 197 | 0.0 | 0.0 | 0.00 | 0.00 | 0.00 | 54 | 1015.2 |
| 20260504010503 | 51 | 197 | 0.0 | 0.0 | 0.00 | 0.00 | 0.00 | 53 | 1015.1 |
| 20260504010014 | 51 | 197 | 0.0 | 0.0 | 0.00 | 0.00 | 0.00 | 52 | 1015.1 |
| 20260504005510 | 52 | 197 | 0.0 | 0.0 | 0.00 | 0.00 | 0.00 | 51 | 1015.0 |
| 20260504005006 | 52 | 197 | 0.0 | 0.0 | 0.00 | 0.00 | 0.00 | 49 | 1015.0 |
| 20260504004514 | 53 | 197 | 0.0 | 0.0 | 0.00 | 0.00 | 0.00 | 48 | 1015.0 |
| 20260504004008 | 53 | 197 | 0.0 | 0.0 | 0.00 | 0.00 | 0.00 | 48 | 1015.0 |
| 20260504003509 | 54 | 197 | 0.0 | 0.0 | 0.00 | 0.00 | 0.00 | 47 | 1014.9 |
| 20260504003024 | 54 | 197 | 0.0 | 1.0 | 0.00 | 0.00 | 0.00 | 46 | 1014.9 |
| 20260504002512 | 55 | 197 | 0.0 | 1.0 | 0.00 | 0.00 | 0.00 | 46 | 1014.8 |
| 20260504002002 | 55 | 197 | 0.0 | 0.0 | 0.00 | 0.00 | 0.00 | 45 | 1014.7 |
| 20260504001505 | 56 | 197 | 0.0 | 0.0 | 0.00 | 0.00 | 0.00 | 44 | 1014.7 |
| 20260504001004 | 56 | 197 | 0.0 | 0.0 | 0.00 | 0.00 | 0.00 | 43 | 1014.7 |
| 20260504000504 | 57 | 197 | 0.0 | 1.0 | 0.00 | 0.00 | 0.00 | 42 | 1014.6 |
| 20260504000007 | 57 | 197 | 0.0 | 2.0 | 0.00 | 0.00 | 0.00 | 41 | 1014.6 |
| 20260503235504 | 58 | 197 | 0.0 | 2.0 | 0.00 | 0.00 | 0.00 | 40 | 1014.6 |
| 20260503235004 | 58 | 218 | 0.0 | 2.0 | 0.00 | 0.00 | 0.00 | 38 | 1014.5 |
| 20260503234504 | 59 | 218 | 0.0 | 2.0 | 0.00 | 0.00 | 0.00 | 38 | 1014.5 |
| 20260503234004 | 59 | 201 | 0.0 | 5.0 | 0.00 | 0.00 | 0.00 | 37 | 1014.4 |
| 20260503233504 | 60 | 201 | 0.0 | 5.0 | 0.00 | 0.00 | 0.00 | 36 | 1014.3 |
| 20260503233018 | 60 | 236 | 0.0 | 4.0 | 0.00 | 0.00 | 0.00 | 34 | 1014.3 |
| 20260503232502 | 60 | 279 | 0.0 | 4.0 | 0.00 | 0.00 | 0.00 | 33 | 1014.2 |
| 20260503232006 | 61 | 287 | 0.0 | 4.0 | 0.00 | 0.00 | 0.00 | 33 | 1014.2 |
| 20260503231504 | 61 | 21 | 1.0 | 10.0 | 0.00 | 0.00 | 0.00 | 33 | 1014.2 |